Home > Weather > Idaho Falls > Past weeks

Flag for USA Past Weather in Idaho Falls, Idaho, USA — Yesterday and Last 2 Weeks

Now
37 °F

Clear.


Feels Like: 32 °F
Forecast: 40 / 74 °F
Wind: 7 mph from North

Location: Fanning Field

Current Time: Aug 24, 2016 at 6:31:27 AM

Latest Report: Aug 24, 2016 at 5:53 AM


Visibility: 10 mi

Pressure: 30.10 "Hg (25.22 "Hg at 1429m altitude)

Humidity: 73%

Dew Point: 29 °F

Location of Idaho FallsLocation

Past Weather in Idaho Falls — Graph

°F

Idaho Falls Temperature Yesterday

Maximum temperature yesterday: 80 °F (at 2:53 PM)
Minimum temperature yesterday: 48 °F (at 5:53 AM)
Average temperature yesterday: 65 °F

High & Low Weather Summary for the Past Weeks

 TemperatureHumidityPressure
High93 °F (Aug 15, 3:53 PM)85% (Aug 12, 3:53 AM)30.19 "Hg (Aug 12, 3:53 AM)
Low38 °F (Aug 24, 3:53 AM)8% (Aug 22, 3:53 PM)29.72 "Hg (Aug 9, 4:53 AM)
Average67 °F38%29.96 "Hg
* Reported Aug 9 4:53 AM — Aug 24 4:53 AM, Idaho Falls, Weather by CustomWeather, © 2016

Note: Actual official high and low records may vary slightly from our data, if they occured in-between our weather recording intervals... More about our weather records

Advertising

Idaho Falls Weather History for the Previous 24 Hours

Scroll right to see more
 ConditionsComfort  
Time TempWeatherWind HumidityBarometerVisibility
4:53 AM
Wed, Aug 24
38 °FClear.6 mph73%30.09 "Hg10 mi
3:53 AM38 °FClear.3 mph73%30.09 "Hg10 mi
2:53 AM44 °FClear.No wind60%30.07 "Hg10 mi
1:53 AM47 °FClear.No wind46%30.06 "Hg10 mi
12:53 AM49 °FClear.3 mph44%30.06 "Hg10 mi
11:53 PM
Tue, Aug 23
48 °FClear.5 mph44%30.07 "Hg10 mi
10:53 PM57 °FClear.10 mph28%30.03 "Hg10 mi
9:53 PM67 °FSunny.14 mph16%30.01 "Hg10 mi
8:53 PM68 °FSunny.15 mph19%29.98 "Hg10 mi
7:53 PM72 °FSunny.14 mph17%29.98 "Hg10 mi
6:53 PM77 °FSunny.17 mph12%29.97 "Hg10 mi
5:53 PM79 °FSunny.21 mph10%29.96 "Hg10 mi
4:53 PM79 °FSunny.18 mph12%29.95 "Hg10 mi
3:53 PM80 °FSunny.24 mph10%29.96 "Hg10 mi
2:53 PM80 °FSunny.23 mph10%29.96 "Hg10 mi
1:53 PM77 °FPassing clouds.13 mph13%29.98 "Hg10 mi
12:53 PM74 °FPassing clouds.16 mph18%29.99 "Hg10 mi
11:53 AM71 °FPassing clouds.14 mph19%30.00 "Hg10 mi
10:53 AM67 °FSunny.17 mph24%30.01 "Hg10 mi
9:53 AM63 °FScattered clouds.15 mph30%30.01 "Hg10 mi
8:53 AM61 °FScattered clouds.17 mph30%30.00 "Hg10 mi
7:53 AM56 °FPassing clouds.9 mph36%29.99 "Hg10 mi
6:53 AM50 °FClear.No wind44%29.96 "Hg10 mi
Weather by CustomWeather, © 2016

See weather overviewHow to use our weather pages